STARLINK-32955, 63117

Orbit data source: Space-Track

STARLINK-32955, 63117 is a payload satellite owned by SpaceX/Seattle (US) in LEO that was launched on Thu, 27 Feb 2025 UTC via an FALCON 9 launch vehicle from the Air Force Eastern Test Range (AFETR). Payload-class satellites include a variety of spacecraft equipped with specific instruments for various scientific and technological missions. These include communications satellites like Starlink; space stations such as the ISS; scientific satellites like the Hubble; Earth observation satellites from companies like Planet Labs, Umbra, and HawkEye 360; GPS; miniature CubeSats for education and research; and military/defense satellites.

Loading next visibility...
Identifier
63117, 2025-039P
Orbit
LEO
Last TLE update
13 hours ago
Origin
Manufacturer
SpaceX/Seattle
Mission
Operational Commercial Communications
Bus & Motor
STARLINK V2M, Unknown motor
Mass
730 kg wet, ~700 kg dry
Launch date (UTC)
2025-02-27 (4 months ago)
Launch vehicle
FALCON 9
Launch site
Air Force Eastern Test Range (AFETR)
Object type
Payload
Rocket body
Debris
Shape & HBR
Box + 2 Pan, 29 m
Radar Cross Section
33.884 m², Large (>1 m²)

Expand to show TLE details & history

TLE from 13 hours ago
0 STARLINK-32955
1 63117U 25039P   25187.40371863  .00028004  00000-0  10227-2 0  9990
2 63117  43.0001 323.4072 0000589 220.4237 139.6571 15.27599068 20401
Epoch: 2025-07-06T09:41Z
TLE epoch observation values (Epoch: 2025-07-06T09:41:21.289Z)
Latitude
-0.00002°
Longitude
-106.55943°
Altitude
483.075 km
Speed
7.626 km/s
True Right ascension
21h 33m 37s
True Declination
0° 00' 00"
Sunlit
Object was in full shadow at epoch
Visualization orbit readout
Latitude
11.96211°
Longitude
57.26028°
Altitude
481.717 km
Speed
7.628 km/s
Apparent Right ascension
05h 22m 56s
Apparent Declination
-33° 07' 39"
Sunlit
Object is in daylight
Visualization observer readout
Local Sidereal Time
10:57:14
Azimuth
240.061° WSW
Elevation
-16.189°
Doppler factor
1
Orbital elements
Apogee altitude
485.341 km
Perigee altitude
484.533 km
Semi-major axis
6,863.074 km
Eccentricity
0.00006
Inclination
43.0001°
RAAN
323.4072°
Arg. of periapsis
220.4237°
True anomaly
Unknown
Mean anomaly
139.6571°
Eccentric anomaly
Unknown
Mean motion
3.81738 °/min
Orbital period
94.31 mins
BSTAR
0.0010227
Loading maneuver chart data...
Loading SW <> Apogee altitude chart data...
Loading historical data...
Loading historical data...
Loading historical data...
Loading historical data...
Loading historical data...
Loading historical data...
Loading historical data...

STARLINK-32955 Visibility forecast

Observer location: undefined°, undefined°

Span
Click to sort rows by Start time (UTC) header in descending order
Start Az.
Max El. time (UTC)
Max El. Az.
Max El.
End time (UTC)
End Az.
5 mins2025-07-07 12:36:01.370Z225.534° WSW2025-07-07 12:38:01.370Z174.997° S38.37°2025-07-07 12:41:01.370Z80.921° E
5 mins2025-07-07 14:15:01.370Z278.258° WNW2025-07-07 14:17:01.370Z331.056° NNW39.556°2025-07-07 14:20:01.370Z67.997° E
6 mins2025-07-07 15:54:01.370Z293.572° NW2025-07-07 15:56:01.370Z332.802° NNW38.919°2025-07-07 16:00:01.370Z90.266° ESE
6 mins2025-07-07 17:33:01.370Z274.915° WNW2025-07-07 17:35:01.370Z229.827° WSW35.707°2025-07-07 17:39:01.370Z131.709° SE
|